Location: Tucson
(32.2217°N, 110.9265°W)
Time: 19:26:37
(UTC-07:00)

A-11 Canister half - Pass Details

Date: 31 October 2021
Orbit: 1516 x 1684 km, 47.2° (Epoch: 28 November)

Event Time Altitude Azimuth Distance (km) Brightness Sun altitude
Rises 21:08:21 0° 305° (NW) 4,903 12.3 -45.7°
Reaches altitude 10° 21:11:46 10° 311° (NW) 3,896 11.6 -46.4°
Enters shadow 21:17:25 33° 335° (NNW) 2,473 10.1 -47.5°
